Theta_e
305 305 306 305 306 306 307 307 307 307 308 310 310 310 310 310 310 310 310 309 310 309 308 309 308 308 308 308 308 309 309 308 309 309 310 312 313 314 318 322 322 321 320 317 316 319 324 328 332 335 336 338 341 343 344 344 344 346 352 354 351 353 355 357 356 354 357 358 357 358 356 357 357 355 355 355 355 354 355 355 354 354 353 352 353 352 352 351
305 305 305 305 305 306 306 307 307 307 307 308 309 310 310 310 310 310 310 310 309 309 309 309 309 308 308 308 308 309 309 309 309 311 312 315 316 317 318 320 322 322 321 319 316 321 328 333 337 336 336 339 342 344 343 342 343 345 350 353 351 355 356 354 356 354 355 357 358 359 355 355 356 355 355 356 355 353 355 354 353 353 352 353 352 352 351 351
305 305 305 305 305 305 306 306 307 307 307 307 309 309 310 310 311 310 310 310 309 309 309 308 309 308 308 308 308 309 308 309 315 321 322 321 320 320 319 319 320 321 322 320 316 322 331 333 335 337 337 340 343 344 342 342 343 344 348 351 349 352 354 353 355 356 355 356 358 360 356 355 355 353 355 356 356 355 356 354 353 353 352 352 352 353 351 351
305 305 305 305 305 305 305 306 307 307 307 307 308 309 309 310 310 310 310 310 309 309 308 309 309 308 308 308 309 308 308 317 325 329 328 325 322 320 320 318 317 318 322 320 316 326 333 332 335 338 339 341 343 342 341 341 340 344 347 348 347 347 353 355 353 355 355 354 357 359 357 356 355 353 354 357 358 359 358 353 353 353 352 351 352 352 351 350
305 305 305 305 305 305 305 306 307 307 307 308 308 308 309 309 310 310 310 310 309 309 308 309 308 309 308 307 309 307 313 326 329 327 326 322 321 321 320 319 315 315 322 319 317 329 332 330 334 336 340 340 341 340 339 340 339 342 345 345 345 344 353 354 350 353 354 354 356 356 357 356 355 354 354 356 361 360 356 353 353 353 351 351 350 351 351 351
305 305 305 305 305 305 305 307 308 308 308 308 309 309 309 309 309 310 310 310 309 309 309 309 308 309 308 308 309 307 316 328 324 323 324 320 319 319 320 321 317 315 321 319 318 328 331 330 333 336 340 340 339 339 337 340 338 340 343 342 342 341 350 353 350 351 353 355 357 356 354 356 357 357 354 354 358 356 354 354 353 353 352 351 350 350 351 351
304 305 305 305 305 304 305 307 309 309 309 309 309 309 309 309 309 310 310 309 309 308 308 308 308 309 310 310 310 311 320 325 321 323 322 321 321 319 320 321 318 315 320 319 318 328 330 331 334 336 340 339 338 338 337 339 337 339 339 340 340 338 346 352 351 353 353 355 358 356 354 355 357 358 355 354 353 352 354 354 353 353 352 351 351 350 351 351
304 304 305 305 305 304 305 307 309 309 309 309 309 309 309 309 309 310 310 309 308 308 309 309 310 311 312 311 311 317 323 324 322 323 321 322 322 318 318 321 320 317 320 319 319 330 331 330 334 337 339 338 338 336 336 337 336 337 337 338 338 336 343 348 351 352 353 355 355 355 355 356 356 355 356 355 352 352 354 354 353 354 351 352 351 350 352 351
304 304 304 305 305 305 305 307 309 309 309 310 309 309 309 309 310 310 310 309 308 309 309 311 312 313 313 311 315 321 323 323 322 322 321 321 322 319 316 320 321 319 320 318 322 330 330 329 334 337 337 337 337 335 334 334 335 335 336 338 338 336 339 343 350 352 353 354 354 355 355 356 355 356 358 355 352 352 354 354 354 353 352 352 352 351 351 352
304 304 304 305 305 305 304 306 309 309 310 310 310 309 309 309 310 309 309 309 309 310 311 313 312 312 313 315 321 325 322 322 322 321 320 321 324 320 317 322 322 321 320 318 324 329 327 330 335 336 336 336 335 334 332 333 332 332 332 335 336 336 337 338 344 350 352 352 353 355 355 356 354 358 362 355 353 354 353 353 353 354 353 352 352 351 351 351
304 304 304 304 305 305 305 305 307 309 310 310 310 310 310 310 309 309 309 309 309 311 312 313 312 312 316 320 322 325 322 319 319 321 320 321 325 323 322 327 324 321 321 318 324 328 327 330 333 334 335 334 334 333 332 331 330 329 329 329 330 333 335 335 337 341 349 351 352 355 354 355 354 357 359 354 354 355 353 353 353 353 353 353 352 351 351 351
304 304 304 304 305 305 305 305 306 308 309 310 310 310 310 310 309 309 308 309 310 312 312 313 313 313 319 323 323 325 322 317 317 320 319 320 325 325 325 329 325 322 320 320 324 326 327 329 331 333 333 333 332 331 330 329 328 327 327 327 328 329 331 334 336 333 341 350 353 354 353 355 355 356 354 354 355 353 353 352 352 354 354 354 353 352 351 351
304 304 304 304 304 304 305 305 305 307 309 310 310 310 310 309 309 309 308 309 311 312 312 313 314 314 320 325 324 322 320 317 317 318 318 317 322 325 325 328 327 323 321 322 323 325 328 329 332 332 332 332 333 331 330 329 327 325 326 326 327 327 329 329 334 332 335 348 353 352 355 356 355 354 354 353 354 352 353 352 351 353 353 353 353 352 352 351
304 304 304 304 304 305 305 305 305 305 308 310 311 310 311 310 309 309 309 310 310 312 313 314 314 315 319 325 324 319 318 317 317 319 320 317 320 324 326 328 329 325 323 325 326 328 331 332 332 333 332 331 332 330 329 329 327 325 324 325 326 324 325 328 331 332 333 347 351 348 355 357 353 353 355 354 353 353 353 352 351 351 352 352 353 354 352 352
303 304 304 305 304 305 304 305 305 305 307 310 311 310 310 310 310 309 310 311 310 312 312 313 317 320 324 329 326 321 318 318 319 318 318 317 317 321 323 327 330 329 327 327 329 331 333 333 332 331 330 329 329 329 328 328 327 327 323 322 324 322 324 327 329 331 333 343 349 346 348 354 354 352 355 354 352 354 353 352 352 351 352 351 353 354 352 353
304 304 304 304 305 305 305 305 305 305 307 310 311 311 312 312 310 310 311 312 313 314 312 315 322 327 328 328 324 321 318 318 319 316 317 317 316 319 322 325 328 330 329 329 330 331 332 333 332 330 329 328 328 328 328 326 325 327 324 320 322 321 322 325 327 330 331 336 343 343 346 354 357 352 353 354 352 354 353 352 353 351 352 352 352 354 353 353
305 305 305 305 305 305 305 305 305 305 307 310 312 312 314 314 311 311 312 313 313 314 314 316 321 326 328 325 321 321 319 317 317 317 317 317 317 317 321 325 326 328 330 330 330 332 332 332 332 331 328 327 328 328 326 323 322 325 325 321 321 322 321 323 325 330 330 334 336 337 347 353 355 352 353 354 353 354 354 352 353 350 351 351 351 352 352 353
307 307 307 306 305 305 305 306 305 305 307 311 313 313 315 316 316 316 315 314 314 317 319 318 320 326 328 324 323 321 317 317 316 317 317 317 317 317 319 325 327 327 328 328 329 331 331 331 331 330 329 328 328 328 324 322 323 322 322 320 320 321 321 321 324 328 331 334 333 335 349 353 353 352 353 353 353 353 354 353 352 352 350 350 351 351 352 352
308 308 308 308 307 306 305 306 305 305 308 313 315 315 316 317 319 319 317 317 320 326 328 323 324 328 324 320 321 317 316 317 315 316 318 317 317 317 318 324 328 327 327 327 328 330 330 330 330 330 329 327 327 327 326 325 325 324 323 321 320 319 320 322 324 327 329 333 333 336 348 353 353 353 353 352 353 353 352 353 353 352 350 350 350 351 351 352
307 308 308 308 308 307 306 306 305 305 310 315 315 316 317 315 317 319 316 317 320 324 326 322 323 325 321 316 318 317 316 317 316 316 317 318 318 317 318 323 327 328 327 326 327 328 328 329 330 329 327 328 328 327 327 328 327 327 326 324 322 320 320 325 326 328 328 332 332 336 347 351 352 352 352 350 353 353 352 353 353 352 351 350 351 350 351 352
307 307 307 307 308 308 307 306 305 306 312 316 316 316 317 315 315 316 315 315 316 317 318 319 319 319 317 316 315 316 315 315 316 316 317 317 317 318 318 321 326 328 327 326 326 326 327 327 328 329 328 328 328 328 327 327 327 326 325 322 322 322 322 326 326 328 328 330 331 334 345 349 351 350 350 349 350 352 354 353 352 352 352 352 351 351 351 351
307 307 307 307 307 308 307 305 306 309 313 315 316 317 316 315 315 315 315 315 315 315 316 317 317 315 315 315 315 315 315 315 316 317 318 318 317 319 321 322 325 327 327 326 327 326 325 324 326 328 329 329 328 328 327 327 326 325 325 322 321 323 323 325 327 328 329 329 332 333 339 346 350 349 349 349 349 351 354 353 352 352 353 354 352 352 352 350
308 308 308 307 307 308 307 306 310 313 314 315 316 316 316 315 315 316 316 316 315 316 317 316 315 315 315 315 315 314 314 315 316 317 318 318 318 319 322 324 324 326 325 325 326 324 323 324 325 325 327 328 328 327 327 325 326 325 324 322 320 323 322 321 324 327 328 327 332 334 336 344 348 348 349 348 350 352 353 354 354 354 354 355 353 352 353 351
309 310 310 308 307 307 308 311 314 315 314 314 316 316 315 315 316 316 315 315 316 316 317 318 316 315 316 315 315 314 314 315 316 318 318 318 319 319 321 324 325 325 325 325 325 323 323 325 325 325 325 327 327 328 327 325 325 325 325 323 321 323 323 321 324 327 326 327 330 332 334 343 350 349 351 350 349 353 354 354 354 354 354 355 354 352 352 352
310 311 311 310 308 306 310 314 315 314 314 314 315 316 315 315 316 316 315 316 317 317 317 318 316 315 315 314 314 314 314 315 316 317 318 317 317 317 319 322 325 326 325 325 324 323 323 324 325 325 325 326 326 327 327 325 324 323 326 326 324 325 324 324 325 325 323 324 331 327 324 332 349 350 350 351 350 353 354 354 354 355 355 355 355 353 352 352
311 311 312 312 309 306 309 314 313 313 315 315 315 315 315 316 316 315 316 317 317 318 317 316 315 315 315 314 314 314 314 315 316 317 317 317 316 317 318 320 322 324 324 325 325 324 324 324 324 325 326 327 326 326 327 327 324 321 325 328 327 327 326 325 325 322 320 320 328 327 321 327 344 348 348 350 351 353 353 354 356 357 357 356 356 353 351 351
311 311 312 312 310 307 309 310 309 310 314 315 315 314 314 315 315 315 319 321 319 318 316 314 315 314 314 314 313 314 314 315 316 316 317 316 316 317 317 318 320 320 320 321 322 324 325 325 325 324 325 326 325 325 327 327 324 322 327 328 327 327 326 326 325 322 322 322 325 328 323 328 336 344 348 350 350 353 353 355 357 358 357 356 355 354 351 351
311 311 312 312 310 310 310 308 307 309 313 315 315 314 314 315 315 316 320 323 320 317 315 313 314 314 314 314 314 314 315 316 316 316 318 317 316 317 317 317 318 318 320 319 319 323 325 326 325 326 326 325 325 326 327 327 325 325 328 328 326 327 326 327 325 322 324 322 321 326 322 323 328 338 349 351 350 353 354 356 357 356 356 355 354 354 352 351
312 312 312 312 312 312 312 312 312 313 314 316 316 314 313 315 316 316 320 324 320 314 316 314 314 314 314 315 315 315 316 315 317 316 317 317 316 317 316 316 316 317 319 319 319 321 323 323 323 324 325 325 325 326 326 326 326 326 327 326 325 326 326 327 325 324 324 321 320 322 319 320 324 333 343 348 349 351 353 355 354 355 355 355 354 354 352 351
312 312 312 313 312 311 312 314 316 315 315 316 316 314 315 315 317 319 323 324 318 315 316 314 315 315 315 315 315 316 316 316 316 316 316 316 316 316 316 316 317 317 318 319 319 320 321 321 321 323 324 325 326 326 326 325 326 325 325 326 325 326 328 328 329 329 325 322 322 321 318 319 321 329 338 343 347 349 351 353 353 354 355 355 355 354 353 352
313 313 313 313 312 311 311 314 316 316 316 316 315 315 316 317 319 322 324 321 315 316 315 315 315 315 315 315 315 316 316 316 316 316 316 315 316 316 316 317 316 316 316 316 318 319 318 319 321 322 323 325 326 326 326 326 325 325 325 325 324 324 325 323 325 326 322 323 325 321 320 317 317 325 335 338 343 348 349 350 352 354 354 355 355 354 354 353
313 313 313 312 313 313 312 313 315 315 316 315 316 316 317 319 321 322 322 318 314 315 315 316 317 315 316 316 316 316 316 316 315 316 316 315 316 317 317 318 317 316 316 315 316 317 316 317 319 322 322 324 325 324 325 325 324 325 325 323 321 320 321 319 321 321 321 323 325 323 323 318 317 325 332 330 334 344 349 347 351 354 354 354 354 354 354 354
313 313 313 314 315 315 314 314 314 315 316 316 316 317 317 322 324 321 319 316 314 316 316 316 317 316 316 315 316 317 315 315 315 315 315 316 318 318 317 318 319 319 319 317 316 316 316 317 318 320 321 322 324 323 322 323 324 324 323 322 321 319 318 320 320 320 321 322 323 323 323 319 319 325 328 327 326 336 347 348 349 353 354 352 353 353 354 354
314 314 315 317 317 316 315 315 315 316 316 315 316 318 319 323 324 319 317 316 315 317 316 316 316 316 316 315 315 316 316 316 316 315 315 315 317 318 318 318 318 318 318 318 316 316 317 318 318 318 319 321 323 323 322 323 324 325 324 323 322 319 319 320 320 320 322 323 321 321 322 320 320 327 329 327 326 328 337 347 350 352 353 353 353 354 354 354
313 315 317 319 319 317 316 315 316 316 316 316 316 319 323 324 321 317 316 316 316 316 316 315 316 315 315 316 316 316 316 315 316 316 315 314 316 319 319 318 317 317 316 316 317 316 315 317 318 318 320 321 322 322 323 323 322 324 325 323 320 321 321 320 321 320 320 321 321 321 322 324 327 333 331 327 328 327 328 342 350 351 351 352 353 354 354 354
315 316 317 319 320 318 315 315 316 315 315 316 317 322 326 322 317 316 315 316 316 316 316 315 315 315 314 315 317 316 315 315 315 315 314 314 317 318 318 317 317 316 315 315 316 315 314 316 317 318 319 320 320 321 322 322 321 323 323 321 322 324 323 320 321 321 319 319 321 321 322 325 327 330 330 327 328 327 325 334 347 351 350 351 352 352 352 354
318 319 317 319 319 317 315 315 315 315 315 316 318 324 325 318 314 315 315 315 316 315 315 314 315 315 313 314 316 315 314 314 314 314 313 315 317 317 317 316 316 316 315 315 315 315 314 314 316 317 319 318 318 320 322 323 322 320 319 322 325 326 323 321 320 320 322 321 321 320 321 323 323 326 330 328 328 329 326 329 342 350 350 350 352 351 351 354
320 321 320 319 318 316 315 315 315 315 316 318 322 324 321 316 315 315 314 315 316 315 315 314 315 316 314 314 315 315 314 314 314 314 314 316 317 316 316 315 315 315 315 315 315 314 313 314 316 317 317 317 317 320 321 323 323 322 321 322 325 323 322 322 321 319 321 321 320 321 321 320 323 326 327 328 328 329 331 327 336 349 351 350 351 352 352 353
319 323 322 319 318 317 315 315 316 316 317 323 326 325 319 315 315 314 314 314 314 314 314 314 315 315 315 314 315 315 315 314 314 314 314 315 316 315 315 315 315 315 314 314 314 314 314 314 315 316 315 315 317 318 318 320 323 323 322 322 323 323 321 322 322 320 320 321 321 322 322 321 326 330 327 330 331 330 333 331 332 345 351 351 351 351 351 351
319 322 320 317 317 317 316 316 317 317 319 323 323 319 317 315 315 314 314 313 314 314 313 313 314 314 314 315 314 314 315 314 314 314 314 315 315 314 314 314 314 314 314 315 314 314 315 315 315 315 315 314 316 317 317 317 318 320 320 319 320 321 322 322 322 320 320 321 320 321 322 323 329 332 330 333 334 329 332 337 333 335 346 351 350 350 351 351
321 321 319 316 316 316 316 316 317 319 321 320 317 315 315 315 315 315 314 313 314 313 313 313 314 314 314 315 314 314 314 315 314 315 314 314 314 314 313 313 313 313 314 314 314 314 316 316 315 315 316 315 315 316 316 316 316 317 317 317 318 319 320 320 322 322 320 319 320 322 321 322 329 333 333 336 341 336 328 338 340 331 340 351 351 349 351 351
322 321 316 315 316 316 316 317 317 318 319 317 315 314 315 315 315 315 314 314 314 314 314 314 313 314 314 314 314 313 314 314 314 315 314 313 314 313 313 313 314 313 313 313 313 314 315 317 317 316 316 316 316 317 317 317 317 317 317 318 319 319 317 317 321 325 322 319 320 323 320 321 326 333 335 339 345 344 331 332 337 331 339 349 350 349 352 352
322 320 317 315 316 315 316 317 317 317 316 316 315 314 315 315 314 314 314 314 314 313 314 314 313 313 313 313 314 313 313 314 314 313 314 314 314 313 313 313 313 313 313 314 313 314 315 317 317 317 318 317 316 316 317 317 317 316 317 318 319 319 319 319 322 324 322 320 321 323 321 323 328 335 340 345 347 347 344 340 337 331 337 346 349 350 353 353
320 320 318 316 315 315 315 315 317 317 316 315 315 314 314 314 314 313 313 313 314 313 313 313 313 313 312 312 313 312 312 314 314 313 313 314 314 314 314 313 313 313 313 315 315 313 314 317 317 318 320 320 318 319 322 321 318 317 318 319 319 321 321 322 322 323 324 323 324 324 324 326 330 334 340 346 346 346 350 349 345 344 344 347 349 349 351 352
321 321 318 316 315 315 315 314 315 316 316 315 314 313 314 314 313 312 313 313 313 313 312 312 313 313 313 312 313 312 312 313 313 313 313 313 314 314 313 313 313 313 313 316 316 314 314 316 316 317 319 320 320 322 322 320 318 317 318 317 319 319 320 321 322 323 327 328 326 326 326 328 329 329 335 345 346 346 349 349 348 347 347 348 349 348 349 352
321 319 317 317 316 314 314 314 315 315 315 315 315 314 313 313 312 312 312 313 312 312 313 313 313 313 312 312 313 312 312 313 313 314 314 313 314 313 313 313 313 313 314 315 315 314 314 315 315 316 318 317 317 318 318 316 315 316 315 315 316 317 318 320 322 324 327 328 326 328 330 328 326 327 336 344 345 345 347 348 348 346 345 346 347 347 349 351
319 317 316 316 316 315 315 315 315 315 314 315 315 314 313 313 313 312 312 312 312 312 313 313 313 312 312 313 313 313 313 314 314 314 314 314 314 314 313 313 313 313 313 313 313 314 315 314 314 315 315 314 314 314 313 314 314 313 314 313 314 316 317 318 321 322 325 326 326 331 334 328 323 329 339 343 343 345 347 347 346 345 343 343 345 345 348 350
317 316 315 315 316 316 316 315 315 314 314 314 314 313 313 313 312 312 312 312 312 312 313 314 313 312 312 312 313 313 314 314 315 315 315 315 315 314 314 313 313 313 313 313 313 313 314 314 313 313 313 312 312 313 312 312 313 312 313 313 313 314 314 315 318 320 321 323 324 327 330 326 326 335 341 341 341 343 346 346 344 343 342 341 342 343 345 347
317 317 316 316 315 315 315 315 315 314 314 315 314 313 313 312 311 312 311 312 313 313 313 313 313 313 313 313 314 314 314 315 316 315 315 315 315 314 314 315 314 313 313 313 314 313 314 314 313 312 313 312 312 312 312 312 312 312 312 312 312 314 313 314 317 317 319 320 320 322 325 326 332 340 341 340 341 343 343 343 341 340 340 340 340 341 342 343
316 316 317 317 316 315 315 315 315 315 314 314 315 313 312 312 311 311 311 312 313 313 313 313 313 313 313 313 315 314 314 315 315 315 315 314 314 315 315 314 314 313 313 314 314 313 314 315 313 312 313 313 312 312 312 312 313 312 312 313 312 313 314 314 315 317 318 320 320 322 324 328 337 342 339 338 341 343 341 339 338 337 337 338 338 338 338 340
315 316 316 317 317 315 316 315 315 315 313 313 314 313 312 312 311 311 312 312 311 312 312 312 312 313 312 313 314 314 314 314 314 314 313 313 313 313 313 312 312 313 313 314 314 314 315 314 313 313 314 313 312 312 312 312 312 312 312 313 312 312 313 313 315 317 318 320 320 320 324 331 339 340 338 337 338 341 340 337 336 334 334 334 335 335 336 336
316 316 317 318 318 316 315 315 314 314 313 313 313 313 312 313 312 311 313 312 311 311 312 312 312 313 313 313 314 313 313 313 312 312 312 312 312 311 312 312 312 312 313 314 315 315 315 315 314 315 316 314 312 313 313 313 313 313 313 313 314 314 315 315 315 317 318 318 319 320 324 331 334 335 335 336 337 338 336 334 333 332 331 331 332 332 332 333
Wind_Speed
20 21 21 22 22 22 21 20 20 19 19 18 18 18 17 17 17 17 16 16 15 16 15 16 16 15 14 14 15 11 10 10 11 13 11 7 11 12 11 12 14 14 12 10 12 13 10 11 13 13 11 13 17 18 17 15 16 12 5 3 4 4 4 1 3 4 2 2 4 8 4 0 4 5 8 7 4 5 12 15 15 15 22 27 31 39 38 37
20 20 21 21 21 21 21 20 20 19 18 18 18 18 18 18 17 17 17 16 16 15 15 16 16 16 15 14 14 12 12 12 12 12 8 7 10 11 11 11 11 13 15 13 14 16 13 13 13 13 15 15 16 17 14 13 15 9 3 3 5 5 5 6 7 8 5 2 3 9 6 1 3 2 2 7 5 4 6 12 16 21 26 30 35 37 36 37
20 20 20 21 21 21 21 20 19 19 18 18 18 18 18 19 18 18 17 16 16 15 15 15 16 17 15 15 14 13 14 14 11 9 3 5 5 6 8 10 11 12 15 16 15 16 14 13 13 15 17 16 15 16 14 13 12 10 7 3 5 6 4 9 13 13 12 8 6 9 9 6 4 5 4 6 6 4 4 10 18 24 30 35 37 35 36 36
21 21 20 21 21 21 21 20 19 18 17 17 18 18 18 19 19 18 17 16 16 15 15 14 15 15 15 15 14 14 16 12 4 3 1 1 2 2 4 8 11 12 15 16 16 17 14 13 13 16 17 13 15 16 13 13 11 9 9 6 8 7 5 9 15 17 17 12 8 10 8 6 6 5 7 6 5 1 5 13 22 28 35 38 38 36 36 35
21 21 21 21 21 21 21 20 19 18 17 16 17 17 17 18 18 18 18 16 16 16 15 14 15 14 15 15 15 15 12 6 1 2 4 6 7 5 4 5 10 13 14 16 19 19 15 17 15 15 15 10 12 12 11 17 14 7 9 12 13 8 6 11 17 19 20 16 12 11 7 7 8 5 8 7 4 4 7 15 24 31 38 40 40 38 35 35
23 22 22 22 21 21 21 20 18 17 17 16 16 17 17 17 18 18 18 17 16 15 15 14 14 14 14 14 15 12 6 2 2 3 5 6 8 6 4 5 9 13 14 17 21 19 15 16 15 14 13 8 9 8 11 21 18 7 7 13 17 12 6 14 19 19 22 22 17 15 12 12 10 4 8 8 7 11 12 16 24 31 38 40 40 39 36 35
24 23 22 22 21 21 21 19 18 17 17 16 16 16 17 17 17 17 17 17 16 14 14 14 13 13 13 13 12 8 7 4 1 3 8 9 10 7 4 5 9 13 16 20 23 19 15 13 15 15 11 7 9 10 13 19 18 11 7 8 16 15 6 17 20 22 24 23 21 22 18 13 11 7 8 8 12 16 14 16 24 29 35 38 37 36 35 34
25 24 23 22 21 21 20 18 17 17 17 16 16 16 16 17 17 17 17 16 14 14 13 12 13 13 12 10 7 7 10 5 1 5 10 11 11 5 5 6 8 13 17 22 24 21 14 12 17 16 8 6 10 12 14 15 12 10 7 8 13 14 9 19 23 26 23 22 24 24 17 10 12 12 9 9 17 18 14 18 26 29 34 36 36 34 34 34
24 24 23 22 21 21 20 18 17 17 17 16 16 15 16 16 17 16 15 14 13 13 11 11 13 13 11 6 3 5 5 2 3 7 9 10 12 5 6 8 8 13 17 22 24 20 14 13 16 15 9 9 12 12 14 10 6 7 10 12 12 12 13 14 22 28 22 22 26 21 14 13 16 14 8 11 18 17 13 21 28 30 32 33 34 32 33 34
24 24 23 22 21 21 20 18 17 17 17 16 15 15 16 16 16 16 14 12 11 10 10 12 14 11 7 1 1 3 1 1 2 5 7 8 10 6 4 7 9 13 17 23 25 20 17 16 14 14 13 12 11 10 13 8 6 10 11 12 12 12 14 10 10 23 26 23 25 20 11 15 18 10 4 10 16 16 15 24 31 31 31 31 32 32 33 34
23 23 23 22 21 21 20 19 18 17 17 17 16 15 15 15 15 14 12 11 9 8 10 13 12 7 3 0 4 4 1 3 6 5 6 4 6 5 1 4 5 12 18 22 25 21 17 17 14 13 11 9 10 10 13 12 13 17 15 12 9 9 11 12 11 11 19 18 22 23 12 12 12 5 5 12 16 19 20 27 30 30 30 30 31 31 32 33
24 23 23 22 21 20 20 20 18 18 18 17 16 15 15 14 12 11 10 9 7 7 9 11 8 4 3 5 9 6 2 6 6 5 8 5 5 4 0 3 4 10 18 18 21 18 13 16 17 16 11 7 8 6 9 13 14 15 13 8 7 8 7 9 10 10 5 13 26 25 12 7 7 7 11 16 20 24 25 27 29 30 30 30 29 30 32 32
25 24 24 23 21 20 20 19 19 18 17 16 16 15 14 13 10 9 9 8 6 6 7 8 5 4 6 7 6 4 7 8 5 4 4 3 5 4 3 6 7 8 17 14 15 13 10 13 16 18 17 12 8 7 12 16 13 11 9 4 4 6 6 6 8 11 7 19 35 22 6 6 7 11 18 21 26 27 25 26 29 30 29 30 29 28 32 32
26 24 24 24 22 21 20 19 18 18 17 16 16 14 12 11 8 6 7 6 6 6 6 5 4 5 6 7 3 3 7 5 4 2 1 1 3 5 5 6 6 7 13 13 13 12 12 13 16 17 17 14 12 13 13 13 10 6 4 2 3 3 3 7 10 12 8 26 42 20 2 7 7 13 22 24 29 29 25 23 26 29 27 28 30 29 30 30
25 25 24 23 23 22 21 20 18 18 16 15 14 12 10 9 6 5 5 5 5 6 6 3 3 5 7 11 6 1 5 1 6 2 2 3 4 7 7 7 8 9 11 12 13 13 12 12 14 14 13 13 13 11 6 5 6 3 3 3 3 4 4 8 12 14 11 23 39 19 2 7 6 12 24 24 28 27 23 22 23 27 26 26 29 31 29 26
25 24 24 23 23 22 21 20 18 18 16 14 13 10 8 8 6 4 4 4 5 5 5 3 4 7 8 7 4 4 3 1 3 3 5 5 6 9 7 8 9 10 11 12 12 11 10 11 11 12 11 9 7 5 3 4 4 3 3 4 4 6 5 7 10 14 16 16 24 16 4 6 4 13 24 24 27 25 21 23 24 26 27 27 28 32 30 25
24 24 23 23 22 22 21 20 18 17 15 12 10 7 6 6 4 3 4 4 6 7 7 4 3 8 8 4 3 7 4 2 3 3 4 4 5 9 7 8 9 10 11 11 12 10 8 9 8 7 8 6 3 3 3 4 4 3 5 5 6 8 5 6 8 12 18 13 14 13 8 9 10 17 24 25 27 24 20 22 25 26 26 26 26 30 30 27
24 23 23 22 22 21 20 19 17 16 13 9 8 9 7 5 4 4 4 6 7 8 8 5 3 4 7 6 7 7 3 2 5 2 3 3 5 7 5 7 9 10 11 10 12 11 8 8 6 3 4 4 4 4 5 5 5 6 6 5 6 8 7 8 7 8 15 15 12 12 11 12 14 18 23 27 27 24 22 21 24 26 25 26 26 28 29 29
25 24 23 23 22 21 19 18 16 13 11 6 6 8 6 9 8 3 4 7 7 5 4 5 8 3 5 5 7 5 2 3 5 4 4 5 5 6 5 6 9 11 10 6 8 11 9 6 6 4 3 5 6 7 7 6 8 9 7 4 5 6 7 10 10 10 11 14 12 13 14 12 13 15 19 26 28 24 24 23 24 26 25 27 28 27 29 30
25 24 23 22 21 19 17 16 13 10 8 6 7 7 10 15 7 0 9 12 11 11 11 10 12 13 10 7 5 6 5 7 8 6 5 4 6 7 7 8 9 11 8 4 6 12 11 4 5 6 5 7 8 10 10 11 12 12 9 7 8 7 6 8 10 10 8 10 11 13 17 15 16 17 18 26 27 22 22 23 24 26 24 26 29 28 29 30
24 24 23 22 20 18 15 14 10 5 5 6 10 9 10 14 6 4 14 15 14 16 19 19 16 14 12 8 7 8 8 8 8 7 4 4 6 5 7 9 8 5 6 7 7 10 10 5 5 7 8 9 9 10 11 12 13 12 9 7 8 8 8 7 6 9 8 7 9 13 18 19 20 19 19 24 23 19 24 24 23 27 24 23 27 27 28 30
25 24 23 21 19 16 13 10 5 1 2 5 9 8 7 11 8 7 11 12 16 16 16 17 14 12 12 9 8 9 9 9 8 9 5 4 7 7 8 9 6 3 6 8 6 6 6 5 7 8 9 10 10 10 10 11 11 9 6 5 6 6 8 9 10 9 5 3 8 13 14 18 23 21 20 24 22 22 30 30 27 29 26 25 27 26 26 30
25 24 23 22 18 15 11 5 2 3 5 7 9 8 7 10 9 9 9 10 15 16 14 12 10 12 11 7 5 7 8 10 8 10 8 5 7 8 8 8 5 5 7 7 6 5 4 6 10 11 10 10 11 11 10 9 7 6 5 4 5 7 7 5 8 10 6 3 5 10 9 12 18 18 18 25 27 25 31 33 30 31 30 29 32 30 28 31
25 24 24 22 19 13 6 2 3 5 8 11 10 6 7 10 8 10 11 7 9 12 14 12 11 11 8 4 5 6 7 11 8 5 8 6 4 3 5 7 7 5 6 8 9 8 6 8 14 15 12 11 10 10 10 7 5 6 7 6 5 7 9 7 7 9 9 8 3 5 4 6 13 15 13 17 22 22 28 31 29 31 32 30 32 32 31 32
25 25 23 22 20 12 3 1 2 4 8 10 9 6 6 11 11 11 8 5 5 6 9 10 9 8 6 5 6 6 7 10 8 3 6 4 3 2 4 6 6 4 6 9 10 8 8 12 13 12 12 12 10 8 8 7 4 5 6 8 8 9 12 11 10 9 6 6 4 3 3 3 10 16 14 12 14 16 23 26 24 30 32 30 32 34 34 35
25 25 23 21 20 12 2 3 5 6 7 8 9 9 8 11 13 10 3 2 3 3 5 7 8 6 7 7 7 7 6 5 3 4 3 4 4 3 5 4 3 4 6 6 6 4 6 11 13 10 10 13 11 8 8 7 5 4 5 7 10 9 10 11 11 7 3 5 6 2 3 4 6 12 14 14 15 15 18 18 20 27 31 31 34 36 38 38
24 25 23 19 17 13 6 5 7 8 8 10 11 12 10 11 12 9 2 3 2 5 6 5 6 4 4 6 7 5 3 2 1 3 1 3 3 1 3 4 3 4 6 4 2 3 6 10 11 10 9 8 8 7 8 9 5 3 5 8 8 7 8 10 9 5 3 5 8 6 1 4 5 10 14 16 15 13 14 15 16 24 30 32 35 38 41 41
24 23 23 18 13 10 7 5 7 8 7 11 14 14 10 8 10 8 3 1 1 5 6 4 4 3 4 4 5 5 4 3 3 4 5 3 3 3 4 5 6 5 6 4 2 4 6 6 6 9 9 5 5 6 8 10 7 4 6 9 8 7 8 8 6 4 3 4 6 7 4 1 3 8 14 16 14 12 14 16 16 23 30 34 35 39 42 43
23 21 21 18 10 7 7 4 6 9 7 10 16 15 9 8 9 6 2 1 1 4 4 6 4 3 3 3 6 8 7 6 4 5 6 6 6 6 4 6 7 8 8 6 5 6 6 7 6 6 6 5 6 6 5 7 6 5 9 10 8 7 7 5 1 1 0 2 5 7 4 2 3 4 11 13 13 13 14 15 16 24 32 35 36 39 41 43
20 18 19 17 10 7 7 2 7 11 10 12 15 13 10 8 7 2 2 1 3 5 4 6 5 5 7 5 6 7 6 5 5 4 6 7 7 8 6 9 7 5 6 7 6 8 10 14 12 5 4 5 6 6 8 8 4 3 7 7 6 5 5 5 2 4 4 1 5 7 7 4 4 3 6 10 14 17 16 14 14 20 28 33 36 38 41 42
18 16 16 14 10 7 7 3 6 8 10 13 13 12 11 6 3 1 1 1 2 2 3 5 3 5 8 5 4 6 4 2 2 3 5 5 6 7 5 6 4 3 4 4 6 8 9 9 7 5 8 6 4 5 6 7 5 4 2 1 2 4 3 4 2 4 2 3 4 6 8 7 5 5 4 5 13 21 19 16 16 19 26 34 37 38 42 43
17 14 11 7 6 5 6 6 6 5 10 13 13 12 8 2 1 2 2 1 2 2 1 4 2 2 2 4 3 5 2 0 0 2 3 3 3 5 4 2 1 0 2 2 3 6 7 5 3 5 8 5 3 4 2 4 4 2 3 4 2 2 1 2 1 1 2 4 5 6 7 7 5 6 8 10 8 17 21 21 23 26 31 36 40 40 41 42
16 11 5 4 5 7 9 7 4 6 11 13 12 9 5 1 0 2 3 2 2 2 1 3 2 3 4 4 0 4 3 1 2 2 3 3 3 3 3 4 5 2 1 2 4 4 4 5 6 5 5 5 4 2 1 2 4 4 1 2 2 2 1 2 2 2 3 4 7 10 8 5 4 5 10 15 14 12 24 30 32 35 39 40 42 44 41 41
14 6 4 3 3 7 11 10 9 8 10 12 10 6 3 1 1 2 5 7 4 3 4 5 1 2 3 3 1 1 1 1 0 3 3 3 3 1 6 11 12 7 3 3 3 3 3 3 3 2 1 8 7 6 4 4 2 5 4 4 4 3 2 3 2 3 4 4 7 11 8 4 4 5 10 15 19 19 19 33 38 39 43 44 42 43 40 40
11 1 1 2 3 7 10 10 10 8 8 11 7 3 2 1 3 4 6 7 6 6 8 5 5 3 4 3 2 2 1 3 2 3 4 3 3 6 5 8 12 9 5 3 3 4 5 4 4 11 9 5 7 8 7 5 4 1 3 4 4 3 2 2 4 4 3 3 3 6 4 3 6 8 10 13 16 22 18 26 39 37 38 40 37 39 40 40
10 2 3 8 8 8 10 9 8 5 6 9 4 2 1 2 4 5 5 8 8 7 9 7 4 3 4 2 3 3 3 2 2 2 3 2 5 9 7 7 10 10 8 3 2 4 5 5 8 15 13 5 6 5 9 7 3 2 0 4 5 5 3 1 4 6 4 3 2 3 4 4 5 6 8 9 13 18 17 14 28 33 35 37 36 39 43 43
12 9 6 10 9 7 8 5 3 1 5 6 3 2 2 4 8 8 7 10 10 8 7 5 2 3 2 4 4 3 3 0 1 2 3 3 4 8 8 9 11 11 10 6 2 4 5 7 8 10 11 15 23 18 3 10 5 2 1 4 3 4 4 0 0 3 3 2 2 3 6 4 3 4 7 10 11 14 15 10 16 27 32 34 36 42 45 46
13 13 6 7 9 7 5 2 1 2 6 4 3 5 3 4 10 10 9 9 10 8 5 4 4 4 6 5 2 3 3 1 3 4 3 2 4 10 8 8 12 14 13 10 4 4 5 5 6 6 10 17 21 16 5 4 6 5 3 5 1 2 2 2 0 2 1 2 3 4 8 5 3 4 7 12 11 10 12 11 13 22 28 31 34 40 45 46
13 14 6 4 8 7 4 3 2 5 7 1 1 4 3 6 11 12 11 9 8 7 5 5 5 5 7 5 4 5 3 2 4 4 3 3 4 10 12 8 9 14 14 10 4 3 4 2 3 6 12 14 11 6 4 2 1 2 6 5 1 3 2 1 2 2 1 2 3 3 5 5 4 4 5 9 11 10 11 11 12 19 28 34 34 37 42 42
11 8 5 7 7 4 2 2 4 7 4 1 0 3 7 7 10 13 11 10 8 5 4 7 7 6 7 7 6 7 4 4 5 3 3 5 4 8 14 11 8 11 13 10 7 5 4 2 4 7 11 10 5 3 7 8 6 6 6 5 3 1 1 1 2 3 2 3 3 3 4 5 6 5 3 5 7 11 12 8 8 16 30 39 39 39 41 41
10 4 4 10 5 2 4 6 6 4 1 2 3 6 8 6 10 15 13 10 8 6 4 6 6 5 5 7 8 8 5 4 6 4 4 7 6 6 11 12 10 10 9 7 7 6 4 2 4 7 7 5 7 11 14 13 10 6 4 4 5 4 3 3 3 3 3 1 2 3 3 6 7 3 7 11 11 8 12 9 4 9 27 41 42 42 44 43
10 2 6 11 7 7 9 7 2 2 1 3 5 6 7 6 11 17 16 12 11 10 6 5 8 8 6 6 7 8 6 4 5 5 5 9 9 6 10 14 13 12 9 4 7 10 7 2 3 6 6 7 12 16 17 15 12 9 7 5 5 4 3 3 3 3 2 2 3 1 2 7 7 7 11 11 19 18 6 10 8 7 22 43 46 45 48 47
11 6 6 12 15 14 10 4 4 5 2 3 6 10 11 10 11 14 16 14 12 12 8 7 11 10 8 8 7 8 7 4 5 8 7 7 9 13 18 18 14 12 8 4 7 12 9 2 3 6 6 8 10 11 12 10 8 8 7 6 6 6 6 4 3 3 2 1 3 1 2 7 4 11 14 13 23 27 19 10 6 4 10 31 42 45 48 48
14 8 4 11 18 16 7 2 4 4 2 4 6 11 12 12 12 12 12 12 11 10 8 8 9 9 8 9 7 7 6 4 6 8 7 4 5 17 25 20 14 11 9 7 7 8 6 2 3 4 4 6 6 5 6 7 8 6 7 9 11 12 12 8 5 6 4 3 5 3 3 6 5 13 16 16 20 19 22 30 25 20 18 13 7 21 42 49
11 6 5 12 18 20 14 9 7 4 4 6 7 8 9 9 11 13 11 12 13 11 8 8 10 9 8 8 6 6 6 4 4 6 6 5 5 14 20 17 12 11 10 13 13 7 3 2 2 2 2 3 4 2 3 6 8 6 9 15 14 14 15 9 4 4 4 5 7 2 4 6 10 16 16 16 17 14 18 28 30 30 32 34 35 17 28 45
7 4 7 12 17 20 17 16 15 9 6 6 4 6 8 6 8 15 14 11 12 13 10 10 11 9 8 10 8 6 6 7 6 5 6 6 5 10 18 18 14 11 9 12 15 8 2 1 2 2 4 5 6 7 7 8 9 9 13 18 16 13 12 7 3 3 3 7 5 2 3 10 13 15 14 13 15 14 15 19 24 29 31 33 40 36 22 17
6 3 5 5 7 12 13 15 17 12 10 10 3 5 9 8 7 11 11 9 11 13 10 8 10 9 9 10 7 6 9 9 7 6 7 8 7 10 18 20 17 13 9 7 9 6 1 2 4 5 7 8 9 14 15 12 11 12 14 16 16 14 11 7 4 4 5 7 5 2 7 11 11 11 11 11 13 11 12 16 21 26 29 31 35 37 37 34
6 5 10 6 2 4 6 9 13 13 12 11 6 7 10 10 9 8 7 7 9 10 7 6 9 11 10 10 6 5 8 8 6 7 6 7 7 8 12 12 11 12 11 7 5 3 0 3 5 7 10 11 11 14 16 13 12 13 13 14 16 16 14 9 8 7 5 5 7 7 11 11 10 10 8 9 11 11 14 18 23 27 29 31 34 35 37 36
9 8 14 13 6 6 8 8 11 13 10 8 6 8 10 10 10 8 6 5 5 9 8 6 8 9 7 6 5 4 4 4 4 5 5 5 5 4 4 5 5 8 9 6 5 4 2 1 5 8 10 13 13 12 14 15 14 13 14 13 14 16 17 13 11 9 7 9 12 10 10 9 6 4 6 10 13 13 17 21 25 29 30 30 32 32 33 33
11 8 12 13 10 8 9 9 10 8 7 7 5 5 7 7 8 7 7 7 5 6 8 7 6 7 5 2 3 3 4 4 3 4 4 4 3 2 1 2 3 5 3 1 2 2 2 0 5 6 6 10 13 13 13 14 14 15 15 13 13 16 17 13 10 8 6 9 12 10 8 6 3 2 4 10 14 13 16 20 22 27 29 29 30 31 31 30
9 6 9 9 4 5 6 7 9 5 4 5 4 4 5 6 8 6 6 9 6 4 6 6 4 5 6 4 3 3 5 5 5 7 8 7 6 6 4 2 3 4 2 1 1 3 3 1 3 3 4 7 9 12 13 13 14 15 15 14 13 14 14 12 9 7 6 8 10 10 6 4 4 6 8 12 14 14 15 18 21 25 28 29 28 29 30 30
7 8 11 9 4 5 7 8 9 5 3 4 4 5 6 7 8 6 3 5 5 2 3 5 7 4 4 5 4 5 7 9 10 11 11 11 12 12 11 10 9 7 3 2 2 3 3 2 1 1 3 6 8 10 12 12 11 10 10 10 10 10 12 12 10 9 9 8 7 6 4 4 6 8 10 12 13 13 15 18 22 24 26 28 27 27 28 29
Wind_Direction
355 354 354 353 351 349 348 347 346 344 343 341 339 339 338 336 333 332 331 330 328 325 323 322 322 326 328 325 325 319 306 309 296 271 259 224 194 203 212 212 213 210 204 200 186 174 182 194 189 188 201 220 221 231 245 235 224 219 194 210 251 260 252 194 109 110 158 226 109 122 141 250 113 149 199 170 130 144 142 146 148 138 139 146 147 147 149 151
352 353 352 352 350 348 347 346 346 343 340 338 336 337 336 334 331 330 330 328 326 323 320 318 319 323 326 324 324 319 312 318 298 271 251 213 206 208 217 225 220 211 209 203 189 177 179 198 200 197 210 221 221 224 236 232 226 225 195 219 230 230 215 163 138 131 136 191 154 121 121 146 73 65 168 131 145 199 157 142 139 134 135 142 147 149 152 152
350 350 349 351 349 347 346 344 344 341 339 335 333 334 333 332 330 330 329 328 324 320 318 316 316 319 322 321 322 319 318 323 303 279 250 207 222 217 225 238 231 216 210 204 195 181 174 195 201 199 211 221 222 219 221 224 224 214 203 242 243 224 186 152 150 141 132 157 170 123 134 159 76 64 109 142 158 205 209 148 139 137 137 145 151 154 154 153
348 348 348 349 348 347 345 343 342 339 338 334 331 330 330 330 328 329 328 327 324 319 318 315 314 316 320 318 318 321 322 329 308 281 354 62 3 312 261 244 229 219 208 200 194 181 181 211 209 203 212 222 226 224 224 220 216 203 194 232 240 208 182 173 160 141 134 148 154 123 129 131 105 124 142 154 145 186 225 159 147 144 142 149 155 157 157 156
347 346 346 347 348 346 344 342 341 339 337 333 330 327 327 327 325 327 326 327 324 319 318 314 315 315 317 315 315 322 328 355 115 248 339 3 359 341 309 265 227 215 203 196 191 184 197 225 228 217 213 226 229 226 232 224 222 219 211 236 245 215 182 180 162 142 136 140 137 125 122 119 124 154 154 166 177 181 192 156 150 150 149 152 156 159 160 157
345 344 344 345 347 346 344 342 340 338 336 333 329 326 325 324 323 325 323 326 324 320 318 316 318 314 316 315 314 322 324 22 146 254 324 344 347 337 302 272 223 208 198 192 191 191 206 227 244 232 209 223 239 234 236 225 222 236 239 242 253 249 188 165 160 147 142 141 141 145 150 140 132 158 165 181 209 181 168 153 152 154 155 157 157 160 162 160
343 342 341 342 344 345 344 341 338 337 335 333 330 326 325 322 322 322 322 325 325 324 320 319 320 313 317 315 315 317 291 301 174 283 325 317 323 322 273 252 215 203 195 190 191 196 208 230 249 235 204 214 239 244 250 239 225 222 244 248 262 269 187 163 162 154 155 149 144 146 148 147 143 155 161 181 205 185 164 157 157 154 157 159 160 163 164 162
342 341 339 339 340 343 342 339 336 334 333 331 329 326 324 322 320 320 321 325 326 327 323 322 318 312 317 318 328 316 286 303 339 312 324 314 318 309 233 239 211 201 196 191 191 192 202 236 247 232 205 219 231 235 247 253 243 229 240 239 260 275 211 172 158 154 154 140 136 137 134 146 154 148 149 190 197 183 165 160 158 156 158 160 163 166 164 162
341 340 339 337 336 340 341 338 332 331 331 328 327 324 322 321 319 319 321 326 329 327 325 321 314 313 315 316 350 312 278 45 23 325 331 323 326 316 227 236 213 204 199 191 191 192 205 238 242 227 218 238 237 241 246 244 251 241 235 227 231 255 240 192 156 154 147 132 137 132 123 146 160 149 150 198 189 181 174 160 158 159 161 162 166 169 165 164
338 339 338 336 334 336 338 336 330 328 327 325 324 321 319 319 317 318 321 328 330 326 324 318 314 315 314 346 53 299 205 94 313 308 325 318 310 304 229 229 212 205 200 191 192 195 211 232 237 229 236 256 254 266 270 259 288 281 266 257 236 235 247 243 185 159 142 134 141 134 130 152 165 166 174 200 185 185 177 156 157 161 165 167 167 171 168 168
337 337 337 337 333 332 336 335 329 326 325 323 321 317 316 315 315 318 322 328 329 320 319 321 322 319 313 229 250 254 131 322 302 282 286 280 274 297 186 210 213 203 199 192 195 198 214 235 249 245 235 254 263 275 282 277 295 299 297 301 282 260 243 240 250 190 141 136 142 131 127 149 167 205 200 189 180 182 171 154 158 162 168 171 170 173 170 171
336 336 336 336 334 330 332 333 329 325 324 321 318 316 310 309 313 316 322 327 324 309 316 330 334 330 326 282 256 257 344 313 306 272 261 234 232 292 175 224 281 209 192 190 198 203 223 244 257 261 249 252 254 259 293 288 285 287 290 294 292 296 264 222 234 239 183 143 141 125 113 158 192 222 196 180 171 171 164 155 161 165 170 174 173 174 171 173
335 336 335 335 334 330 329 331 330 325 322 319 317 314 306 306 309 315 322 322 317 303 312 335 332 324 318 288 267 308 316 285 277 279 261 203 208 245 207 222 280 210 182 188 202 207 231 247 255 261 261 264 265 278 305 303 284 269 271 265 264 284 275 246 220 229 226 144 143 131 116 193 211 204 188 175 166 165 164 165 167 167 171 173 176 176 173 176
335 335 334 333 332 331 329 329 329 325 322 318 315 311 303 303 304 312 320 314 313 296 303 335 327 325 309 283 273 333 315 257 226 310 13 144 208 214 193 203 247 206 185 204 218 224 240 248 252 259 264 266 283 298 304 307 297 273 265 261 250 242 239 254 226 213 197 149 153 152 134 194 214 188 176 171 165 165 169 173 168 164 169 171 174 178 174 178
335 334 333 331 330 330 328 327 328 327 323 317 313 308 301 303 297 303 316 307 304 287 288 316 324 325 298 288 277 260 357 164 194 272 270 235 227 209 196 197 216 211 209 224 230 242 256 258 246 246 262 267 279 295 300 305 301 295 273 262 232 223 224 240 231 212 193 162 166 171 129 178 207 174 170 170 167 168 169 169 165 162 168 171 173 178 176 179
334 333 331 330 329 328 326 327 327 326 324 319 310 300 303 308 285 278 308 306 306 294 280 293 347 332 301 288 246 219 346 15 210 280 264 245 231 220 207 194 206 213 218 227 233 246 265 272 255 235 242 258 263 263 282 289 273 261 239 245 230 225 220 228 239 215 198 181 177 181 134 148 184 169 173 174 170 173 168 166 168 165 171 174 172 176 178 181
335 333 331 328 327 325 324 325 326 325 325 321 308 297 302 306 279 280 311 299 299 294 283 279 344 312 277 219 235 253 250 275 308 294 259 266 230 228 220 192 198 209 212 220 230 236 245 256 262 240 225 239 249 213 238 252 247 257 221 225 238 234 227 218 242 219 196 190 188 181 149 155 168 166 175 179 175 174 172 172 170 168 174 175 170 172 178 183
335 332 330 326 324 324 322 324 325 325 326 325 315 308 303 299 287 283 302 298 292 290 286 259 200 296 277 238 272 284 183 226 306 257 230 278 225 231 236 197 193 199 202 212 220 218 221 229 233 238 212 216 243 219 214 217 220 236 218 213 233 232 243 236 242 230 194 185 188 172 148 159 161 163 175 179 178 174 175 179 170 170 176 174 175 176 178 184
332 331 328 323 323 323 320 322 325 326 329 340 318 308 333 341 309 262 331 313 279 280 287 218 191 234 297 261 263 279 193 250 281 248 250 265 222 220 235 215 198 193 191 194 202 201 204 216 214 223 224 206 215 221 236 253 244 252 256 267 269 241 237 231 238 247 202 176 183 166 147 158 157 163 176 174 177 177 175 177 171 176 181 175 180 181 177 180
333 331 328 325 324 324 319 321 326 325 329 2 3 355 17 6 341 52 351 313 265 264 275 254 228 243 280 295 292 302 285 273 265 253 257 235 207 205 219 224 206 193 196 189 180 194 202 221 217 213 224 219 219 217 230 256 263 275 288 291 291 286 257 225 222 242 218 169 183 170 150 156 159 166 177 171 174 178 173 174 174 181 186 178 178 179 180 181
337 336 334 331 327 324 319 320 328 327 318 349 5 5 13 10 2 331 338 316 279 271 272 270 253 253 288 302 301 308 293 280 255 230 232 216 209 201 195 211 216 190 204 221 202 192 202 228 228 217 224 229 235 227 222 238 254 269 281 287 292 291 290 282 262 250 231 186 187 176 153 154 164 170 174 170 175 179 174 175 176 180 184 180 177 177 182 183
342 342 342 336 331 326 321 324 335 10 351 352 358 357 1 5 354 321 324 308 292 281 269 273 260 258 281 272 270 281 269 270 244 206 207 218 207 205 182 189 220 196 191 220 224 189 196 231 236 231 232 231 240 246 239 235 242 253 263 281 287 286 298 303 299 283 245 185 182 185 167 158 168 171 171 174 180 180 176 177 178 178 179 180 182 181 178 179
345 347 346 340 337 332 323 335 56 48 19 352 345 352 353 353 344 326 320 294 291 289 273 261 241 243 256 239 247 258 245 265 250 181 171 205 211 218 205 191 215 219 194 200 215 211 205 213 219 230 238 235 233 238 248 251 245 242 241 255 264 274 288 292 296 304 316 314 194 182 173 156 162 168 172 177 176 175 176 177 178 179 181 180 185 186 177 175
345 347 347 341 340 339 330 24 58 10 345 329 329 341 345 344 335 328 326 288 278 289 270 242 227 238 240 204 218 232 238 269 278 149 158 223 253 249 239 222 215 219 214 204 208 222 238 222 210 211 221 236 240 231 234 247 253 241 231 236 255 269 274 277 294 311 324 307 265 124 105 129 151 162 171 174 172 171 173 174 175 180 184 182 185 189 182 179
344 346 347 342 342 346 331 333 345 316 318 328 341 352 343 338 329 326 325 283 260 264 246 222 215 236 237 218 231 245 263 271 269 163 160 226 276 324 302 261 229 231 234 217 214 220 238 247 233 212 204 216 236 242 229 225 243 255 233 217 230 258 274 287 305 322 338 312 312 61 83 147 158 166 170 171 174 174 171 173 176 176 180 181 183 189 188 185
342 343 345 344 343 346 324 293 306 305 329 354 357 359 355 337 334 342 337 276 272 195 190 189 192 224 232 216 220 239 270 273 218 160 173 246 266 294 304 292 247 244 250 237 234 224 213 233 243 235 214 203 212 235 241 232 224 244 253 228 216 229 259 281 296 310 320 299 309 315 176 165 166 173 171 171 177 176 171 173 176 173 176 180 183 189 192 190
341 339 341 344 343 346 349 299 288 303 347 7 351 347 347 330 334 347 317 254 251 162 153 167 180 193 202 199 203 218 283 313 171 126 153 245 252 271 277 278 264 251 269 272 246 243 216 217 229 239 238 218 205 211 224 237 239 219 249 264 250 231 239 251 262 271 270 297 311 311 204 135 170 190 180 173 173 171 171 173 175 177 179 182 185 189 192 193
339 336 335 342 342 341 345 321 308 313 342 0 341 331 334 326 329 331 298 280 162 156 143 150 166 148 154 186 209 231 279 260 215 136 149 217 252 224 232 262 281 291 297 296 267 258 234 207 215 231 238 237 229 218 200 213 237 249 251 270 281 270 259 246 235 240 256 289 301 308 331 43 210 192 177 172 170 173 181 181 180 183 184 185 188 190 193 196
336 332 330 337 338 322 319 337 359 347 350 350 330 323 335 332 323 315 263 295 148 163 147 142 153 171 185 206 213 233 254 230 200 149 179 241 246 217 242 278 296 316 308 291 278 271 285 319 308 259 239 229 234 252 236 217 221 239 251 266 281 284 294 304 288 147 272 253 260 283 307 302 280 196 166 168 174 182 191 191 188 186 186 188 189 191 194 196
332 329 327 329 331 309 291 340 20 1 352 336 320 325 338 323 306 278 221 261 144 160 157 139 138 176 200 221 203 213 242 217 192 174 203 238 216 202 254 280 280 306 302 289 289 284 299 311 307 291 283 259 232 240 247 251 274 270 238 247 275 293 319 331 14 68 44 305 246 259 266 264 285 251 177 175 183 185 188 192 191 186 187 190 192 191 192 194
329 326 325 323 330 313 283 305 357 347 342 331 327 335 329 304 276 243 249 35 101 167 163 132 127 178 198 234 201 189 230 232 187 201 215 218 192 193 238 268 259 295 304 291 292 285 285 294 296 306 314 306 277 254 231 232 269 315 300 99 356 318 325 324 356 68 71 272 265 259 255 250 259 251 231 218 191 181 181 184 184 186 188 191 193 193 192 192
328 327 331 334 354 349 316 302 287 318 352 343 336 332 315 267 176 242 258 53 62 285 182 119 121 167 200 272 207 160 160 115 280 281 252 220 188 194 205 213 162 331 301 287 293 281 265 256 241 281 294 296 295 300 285 232 219 278 358 56 42 304 271 260 260 116 185 238 270 270 260 246 239 240 251 273 234 177 180 188 183 183 187 189 192 193 191 190
334 338 9 32 26 27 14 353 321 355 1 343 326 314 296 256 229 262 298 16 78 272 335 77 70 38 10 324 71 100 83 160 221 316 336 287 253 199 145 45 32 33 285 319 321 296 263 239 209 225 240 207 229 269 290 250 181 174 159 122 166 212 230 238 200 190 216 222 234 245 257 250 243 241 231 255 268 209 183 186 187 185 186 189 191 192 192 189
341 360 74 60 22 33 25 14 21 23 350 330 319 296 268 265 318 342 356 15 13 329 41 62 334 323 302 288 64 73 4 93 12 347 342 290 296 44 69 42 30 16 350 355 338 327 323 284 222 291 240 172 196 220 229 269 197 175 182 170 193 192 183 231 198 175 205 221 220 223 228 209 212 227 205 220 252 253 206 184 188 191 188 189 189 188 190 191
349 23 142 332 342 18 17 9 18 23 329 316 308 280 295 328 353 4 5 2 348 355 21 353 287 265 240 228 106 122 89 58 19 316 286 263 43 57 55 37 35 27 16 14 342 337 329 309 338 336 321 193 189 207 216 283 305 201 187 190 217 219 176 225 253 245 237 277 260 220 226 214 203 214 206 199 221 249 243 188 185 192 187 184 185 185 189 192
6 333 304 344 347 354 9 7 3 4 305 302 295 264 312 14 16 18 2 344 337 346 345 314 275 247 233 159 107 102 86 60 234 227 250 208 75 61 63 42 33 37 40 28 310 357 349 296 319 332 322 343 357 286 198 195 263 324 247 209 213 223 220 210 279 290 282 272 264 233 264 259 212 212 220 207 196 223 246 203 181 186 183 180 182 185 189 191
13 5 8 18 14 3 11 2 341 317 274 282 314 327 316 14 19 21 2 337 330 331 327 324 339 320 338 97 110 103 101 146 276 298 267 173 68 34 66 68 43 44 40 23 343 22 7 290 298 332 335 351 350 332 233 161 189 241 281 268 232 208 230 194 314 294 295 276 257 256 276 263 210 221 217 216 209 209 229 226 179 176 178 181 184 186 189 191
4 3 11 32 22 7 3 8 126 231 260 268 342 326 317 38 31 20 359 339 330 328 333 352 356 5 28 52 78 77 93 327 352 335 304 122 48 14 41 65 51 48 31 18 12 357 358 303 299 5 358 344 343 339 355 136 189 206 263 293 346 137 250 322 297 243 265 283 277 274 285 283 237 232 205 210 221 207 209 217 184 172 178 183 184 187 190 191
358 353 343 16 9 351 355 50 47 265 261 257 312 306 12 57 48 32 5 351 351 344 350 358 360 29 32 20 19 33 48 19 359 335 350 58 55 20 22 27 41 39 21 18 23 333 354 319 282 11 6 340 330 339 360 11 214 313 326 313 53 124 200 248 252 232 157 233 268 284 284 280 265 255 225 225 231 213 205 209 187 173 178 182 184 189 192 191
349 336 335 3 356 332 310 340 312 275 270 39 349 18 32 24 37 43 23 4 14 20 5 348 354 18 13 11 26 21 21 38 17 342 14 52 75 36 27 25 24 22 12 12 23 5 360 350 291 333 354 339 312 331 354 359 3 355 336 323 343 2 240 245 262 246 189 192 236 270 276 275 265 261 285 308 275 228 209 198 191 180 175 178 184 189 191 190
347 310 5 9 6 14 317 286 265 244 256 28 36 35 27 7 17 24 15 10 24 33 13 344 354 21 18 13 28 25 8 10 18 7 16 48 67 52 35 28 13 13 12 11 34 31 356 343 316 319 339 337 311 320 329 334 334 324 310 305 308 314 300 279 265 254 229 186 197 208 245 271 264 303 6 3 350 284 215 175 177 191 172 174 182 187 189 188
352 340 36 18 4 339 315 292 255 154 111 64 75 48 26 32 26 11 5 21 29 11 356 12 17 24 34 19 22 31 17 359 12 6 23 62 74 74 49 33 18 14 11 6 32 17 345 314 319 312 314 307 304 309 311 313 321 319 306 292 284 290 297 276 269 276 262 343 337 200 217 261 267 11 13 5 12 359 286 190 195 214 174 172 179 184 186 187
345 339 27 18 2 342 309 289 50 60 58 64 80 62 40 40 40 20 12 25 27 1 359 39 30 22 23 14 22 34 18 2 16 12 22 59 76 68 53 39 25 21 15 7 16 1 343 342 357 326 311 303 301 300 297 305 335 329 309 323 329 320 325 327 322 316 270 284 347 80 228 260 283 24 17 12 25 19 360 342 312 289 162 168 179 185 184 184
342 331 6 22 17 15 9 359 33 58 56 26 55 68 60 46 39 30 19 25 25 1 1 28 23 22 18 3 21 40 22 8 9 11 15 5 53 59 49 39 32 28 18 10 14 6 354 22 21 346 325 319 321 322 316 337 359 337 311 335 345 340 345 2 15 347 322 353 35 74 237 270 340 14 13 15 24 24 11 7 7 12 33 65 131 183 185 185
343 327 4 23 30 35 28 10 22 52 39 34 45 57 68 63 43 37 33 35 27 4 2 18 11 21 28 8 16 35 34 34 0 358 12 348 9 39 31 27 33 29 16 5 2 6 6 351 10 4 315 305 319 346 354 344 343 325 315 325 333 345 354 5 15 346 324 353 21 85 244 300 348 358 1 11 15 17 18 16 15 20 28 32 30 53 171 184
337 337 4 13 26 33 21 15 35 45 17 31 37 14 42 76 55 42 40 35 22 7 12 24 11 16 32 18 10 14 26 32 9 353 2 354 2 13 6 9 15 16 24 7 347 346 16 320 308 268 257 268 289 295 299 312 314 310 315 317 319 333 346 354 358 334 320 326 329 159 302 326 342 349 353 3 6 9 18 18 16 18 27 33 33 44 79 120
338 360 18 358 14 26 15 18 40 46 24 30 19 341 29 58 49 43 45 33 25 20 20 28 22 22 31 21 9 4 10 12 9 6 2 358 358 355 358 2 357 356 18 12 341 342 13 306 293 272 265 267 277 285 291 297 296 296 303 307 308 314 322 329 313 307 331 319 298 10 353 330 330 341 351 2 360 0 9 16 20 18 22 32 36 39 44 53
360 18 24 6 324 20 15 23 48 56 37 29 26 4 24 41 34 33 38 28 37 39 21 21 31 24 18 15 0 354 7 3 2 12 6 357 355 352 354 349 339 351 4 359 348 358 323 290 297 291 289 288 286 287 291 292 287 287 291 296 305 308 310 311 296 298 326 298 286 335 337 320 329 342 348 354 351 354 360 9 25 25 19 26 35 36 36 42
18 19 17 15 23 25 14 28 55 66 50 27 33 26 20 30 30 17 0 356 37 48 26 18 31 15 1 14 4 344 5 358 346 0 354 340 340 342 336 312 317 3 8 3 10 18 42 302 297 297 297 296 297 297 295 295 291 285 285 291 302 300 295 292 284 287 298 282 283 309 314 310 335 344 336 346 350 6 12 12 25 29 21 21 30 33 33 32
28 15 1 5 21 9 355 20 45 63 55 29 26 29 17 26 33 14 4 14 29 41 28 20 13 347 322 16 33 333 341 343 321 321 320 320 321 305 313 325 337 351 353 26 42 55 112 308 300 302 298 292 294 293 288 288 288 284 283 287 292 290 288 285 284 288 290 282 286 297 301 307 314 272 332 2 8 25 29 19 22 29 25 22 25 28 27 25
41 28 355 345 349 334 339 42 51 51 65 42 18 20 13 24 37 24 15 30 36 38 26 3 323 319 327 342 4 344 337 327 303 306 313 314 311 307 303 285 285 292 269 204 191 168 157 260 298 292 282 277 284 289 289 288 287 283 280 276 273 276 282 284 285 291 290 287 296 305 314 334 337 338 354 4 15 36 40 24 20 25 25 23 23 24 22 18
52 49 18 352 323 351 14 55 53 34 63 67 36 24 9 8 24 27 27 33 21 7 1 310 286 303 332 317 340 360 332 311 301 305 305 296 289 285 281 280 284 288 274 226 219 182 177 225 260 259 273 275 279 291 301 302 290 272 265 267 269 273 282 284 281 284 291 295 300 309 350 22 17 24 13 352 4 36 44 33 26 22 22 22 21 20 19 15